Oslo Airport, Norway

2:05 AM CEST on July 23, 2017 (GMT +0200)
Gardermoen

Weather History for ENGM - March, 2013

Change the Weather History Date:

Thursday, March 28, 2013

  Actual Average Record
Temperature  
Mean Temperature 24 °F -  
Max Temperature 37 °F 45 °F 57 °F (2007)
Min Temperature 10 °F 29 °F 10 °F (2013)
Degree Days  
Heating Degree Days 42    
Moisture  
Dew Point 14 °F    
Average Humidity 65    
Maximum Humidity 86    
Minimum Humidity 37    
Precipitation  
Precipitation 0.01 in 0.06 in - ()
Sea Level Pressure  
Sea Level Pressure 30.10 in    
Wind  
Wind Speed 3 mph ()    
Max Wind Speed 7 mph    
Max Gust Speed -    
Averages and records for this station are not official NWS values.
T = Trace of Precipitation, MM = Missing Value Source: Averaged Metar Reports

Daily Weather History Graph

Daily Weather History Graph

Search for Another Location

Airport or City:

Trip Planner

Search our weather history database for the weather conditions in past years. The results will help you decide how hot, cold, wet, or windy it might be!

Date:

Astronomy

Mar. 28, 2013 Rise Set
Actual Time 5:52 AM CET 6:50 PM CET
Civil Twilight 5:10 AM CET 7:32 PM CET
Nautical Twilight 4:17 AM CET 8:25 PM CET
Astronomical Twilight 3:18 AM CET 9:25 PM CET
Moon 8:58 PM CET (3/28) 5:46 AM CET (3/28)
Length of Visible Light 14h 22m
Length of Day
12h 57m
Full, 99% of the Moon is Illuminated
Mar 28
Full
Apr 3
Last Quarter
Apr 10
New
Apr 18
First Quarter
Apr 25
Full

Hourly Weather History & Observations

Time (CET) Temp. Windchill Dew Point Humidity Pressure Visibility Wind Dir Wind Speed Gust Speed Precip Events Conditions
12:20 AM 19.4 °F - 12.2 °F 74% 30.09 in - North 2.3 mph - N/A   Clear
12:50 AM 17.6 °F 12.3 °F 10.4 °F 73% 30.09 in - North 3.5 mph - N/A   Clear
1:00 AM 19 °F - 12 °F 65%  in 47 mi NE 2.2 mph - -   Partly Cloudy
1:20 AM 17.6 °F 12.3 °F 12.2 °F 79% 30.09 in - North 3.5 mph - N/A   Clear
1:50 AM 17.6 °F - 12.2 °F 79% 30.09 in - North 2.3 mph - N/A   Clear
2:20 AM 15.8 °F - 10.4 °F 79% 30.09 in - North 2.3 mph - N/A   Clear
2:50 AM 15.8 °F - 10.4 °F 79% 30.09 in - North 2.3 mph - N/A   Clear
3:20 AM 14.0 °F - 10.4 °F 86% 30.09 in - North 2.3 mph - N/A   Clear
3:50 AM 14.0 °F - 10.4 °F 86% 30.12 in - NNE 2.3 mph - N/A   Clear
4:20 AM 12.2 °F 6.1 °F 6.8 °F 79% 30.12 in - North 3.5 mph - N/A   Clear
4:50 AM 10.4 °F 2.2 °F 6.8 °F 85% 30.12 in - NNE 4.6 mph - N/A   Clear
5:20 AM 10.4 °F - 6.8 °F 85% 30.12 in - NNE 2.3 mph - N/A   Clear
5:50 AM 10.4 °F 4.0 °F 6.8 °F 85% 30.12 in - North 3.5 mph - N/A   Clear
6:20 AM 10.4 °F - 6.8 °F 85% 30.12 in - North 2.3 mph - N/A   Clear
6:50 AM 12.2 °F 6.1 °F 6.8 °F 79% 30.12 in - NE 3.5 mph - N/A   Clear
7:00 AM 11 °F - 8 °F 83%  in 47 mi NNE 4.5 mph - -   Partly Cloudy
7:20 AM 12.2 °F 6.1 °F 6.8 °F 79% 30.12 in - NNE 3.5 mph - N/A   Clear
7:50 AM 15.8 °F - 10.4 °F 79% 30.12 in - Variable 1.2 mph - N/A   Clear
8:20 AM 19.4 °F - 10.4 °F 68% 30.12 in - Calm Calm - N/A   Clear
8:50 AM 21.2 °F - 12.2 °F 68% 30.12 in - Calm Calm - N/A   Clear
9:20 AM 24.8 °F - 14.0 °F 64% 30.12 in - Variable 2.3 mph - N/A   Clear
9:50 AM 24.8 °F 20.5 °F 14.0 °F 64% 30.15 in - South 3.5 mph - N/A   Clear
10:20 AM 26.6 °F - 14.0 °F 59% 30.15 in - Variable 2.3 mph - N/A   Clear
10:50 AM 28.4 °F - 15.8 °F 59% 30.12 in - Variable 2.3 mph - N/A   Clear
11:20 AM 28.4 °F 22.2 °F 17.6 °F 64% 30.12 in - SSW 5.8 mph - N/A   Clear
11:50 AM 30.2 °F 25.4 °F 17.6 °F 60% 30.12 in - South 4.6 mph - N/A   Clear
12:20 PM 30.2 °F 25.4 °F 17.6 °F 60% 30.12 in - South 4.6 mph - N/A   Clear
12:50 PM 32.0 °F 27.5 °F 17.6 °F 55% 30.12 in - South 4.6 mph - N/A   Clear
1:00 PM 32 °F - 20 °F 49%  in 47 mi SSW 6.7 mph - -   Partly Cloudy
1:20 PM 33.8 °F 29.6 °F 19.4 °F 56% 30.12 in - South 4.6 mph - N/A   Clear
1:50 PM 33.8 °F 29.6 °F 19.4 °F 56% 30.12 in - SSW 4.6 mph - N/A   Clear
2:20 PM 35.6 °F 32.8 °F 19.4 °F 52% 30.12 in - South 3.5 mph - N/A   Clear
2:50 PM 37.4 °F 32.8 °F 19.4 °F 48% 30.09 in - SSE 5.8 mph - N/A   Clear
3:20 PM 37.4 °F 32.8 °F 17.6 °F 45% 30.09 in - SSE 5.8 mph - N/A   Clear
3:50 PM 37.4 °F 32.8 °F 19.4 °F 48% 30.09 in - South 5.8 mph - N/A   Clear
4:20 PM 37.4 °F 33.8 °F 19.4 °F 48% 30.09 in - SE 4.6 mph - N/A   Clear
4:50 PM 37.4 °F 32.8 °F 19.4 °F 48% 30.09 in - SSE 5.8 mph - N/A   Clear
5:20 PM 35.6 °F 32.8 °F 14.0 °F 41% 30.09 in - SSE 3.5 mph - N/A   Clear
5:50 PM 35.6 °F 32.8 °F 14.0 °F 41% 30.09 in - South 3.5 mph - N/A   Clear
6:20 PM 33.8 °F - 14.0 °F 44% 30.09 in - Variable 1.2 mph - N/A   Clear
6:50 PM 33.8 °F - 12.2 °F 41% 30.09 in - Calm Calm - N/A   Clear
7:00 PM 31 °F - 15 °F 37%  in 40 mi SSE 2.2 mph - -   Partly Cloudy
7:20 PM 32.0 °F - 12.2 °F 44% 30.09 in - Calm Calm - N/A   Clear
7:50 PM 28.4 °F - 15.8 °F 59% 30.09 in - Variable 1.2 mph - N/A   Clear
8:20 PM 26.6 °F - 15.8 °F 64% 30.09 in - Calm Calm - N/A   Clear
8:50 PM 24.8 °F 20.5 °F 15.8 °F 69% 30.09 in - NNW 3.5 mph - N/A   Clear
9:20 PM 23.0 °F 18.4 °F 15.8 °F 74% 30.09 in - North 3.5 mph - N/A   Clear
9:50 PM 23.0 °F 18.4 °F 14.0 °F 68% 30.09 in - North 3.5 mph - N/A   Clear
10:20 PM 21.2 °F - 14.0 °F 74% 30.09 in - North 2.3 mph - N/A   Clear
10:50 PM 21.2 °F 16.4 °F 14.0 °F 74% 30.09 in - North 3.5 mph - N/A   Clear
11:20 PM 21.2 °F 14.9 °F 14.0 °F 74% 30.09 in - NNE 4.6 mph - N/A   Clear
11:50 PM 19.4 °F 12.8 °F 12.2 °F 74% 30.09 in - North 4.6 mph - N/A   Clear